Precipitable_Water
0.79 0.75 0.68 0.60 0.58 0.59 0.57 0.53 0.53 0.53 0.51 0.52 0.59 0.65 0.68 0.70 0.68 0.67 0.68 0.71 0.71 0.71 0.72 0.74 0.79 0.83 0.88 0.88 0.89 0.92 0.94 0.95 1.09 1.25 1.37 1.43 1.51 1.63 1.59 1.52 1.48 1.51 1.44
0.74 0.64 0.57 0.54 0.51 0.50 0.48 0.46 0.46 0.42 0.39 0.46 0.47 0.53 0.59 0.64 0.63 0.62 0.62 0.57 0.58 0.63 0.64 0.66 0.69 0.75 0.77 0.87 0.85 0.84 0.85 0.85 0.87 0.95 1.13 1.28 1.38 1.51 1.57 1.58 1.56 1.52 1.49
0.60 0.54 0.52 0.48 0.42 0.38 0.38 0.38 0.36 0.33 0.30 0.35 0.38 0.44 0.49 0.54 0.52 0.50 0.48 0.47 0.46 0.51 0.49 0.49 0.50 0.55 0.71 0.80 0.78 0.76 0.76 0.77 0.80 0.83 0.86 0.96 1.22 1.43 1.53 1.56 1.57 1.55 1.55
0.53 0.50 0.45 0.41 0.35 0.29 0.30 0.29 0.28 0.24 0.21 0.24 0.32 0.40 0.46 0.47 0.46 0.46 0.45 0.45 0.43 0.42 0.42 0.41 0.45 0.54 0.54 0.55 0.56 0.55 0.59 0.64 0.69 0.75 0.82 0.87 0.96 1.19 1.38 1.47 1.52 1.54 1.52
0.45 0.40 0.37 0.34 0.29 0.23 0.23 0.26 0.24 0.21 0.18 0.27 0.32 0.39 0.42 0.43 0.42 0.43 0.41 0.38 0.37 0.39 0.37 0.36 0.35 0.45 0.48 0.44 0.44 0.44 0.43 0.39 0.42 0.60 0.71 0.78 0.86 0.99 1.17 1.27 1.33 1.38 1.46
0.41 0.34 0.32 0.29 0.25 0.22 0.21 0.22 0.22 0.22 0.21 0.31 0.34 0.34 0.38 0.40 0.39 0.39 0.38 0.36 0.35 0.35 0.33 0.29 0.28 0.36 0.35 0.35 0.35 0.35 0.33 0.31 0.33 0.35 0.42 0.62 0.72 0.83 0.95 1.10 1.22 1.28 1.34
0.36 0.31 0.28 0.27 0.25 0.23 0.23 0.24 0.23 0.20 0.19 0.32 0.33 0.35 0.36 0.37 0.37 0.37 0.37 0.36 0.36 0.34 0.29 0.27 0.24 0.26 0.30 0.30 0.30 0.29 0.27 0.27 0.28 0.30 0.32 0.32 0.43 0.62 0.78 0.90 1.03 1.16 1.24
0.32 0.27 0.25 0.25 0.25 0.24 0.24 0.24 0.23 0.20 0.20 0.21 0.23 0.28 0.27 0.33 0.33 0.32 0.31 0.30 0.28 0.23 0.22 0.24 0.24 0.25 0.29 0.27 0.27 0.26 0.24 0.23 0.23 0.26 0.28 0.30 0.30 0.34 0.48 0.66 0.85 1.00 1.11
0.34 0.28 0.26 0.24 0.24 0.25 0.25 0.26 0.24 0.21 0.18 0.21 0.21 0.17 0.15 0.18 0.22 0.27 0.24 0.21 0.19 0.19 0.21 0.23 0.24 0.24 0.23 0.25 0.24 0.23 0.24 0.21 0.21 0.25 0.26 0.28 0.28 0.29 0.30 0.39 0.54 0.73 0.87
0.41 0.31 0.26 0.25 0.25 0.26 0.26 0.28 0.27 0.25 0.22 0.18 0.22 0.23 0.22 0.20 0.14 0.12 0.18 0.19 0.19 0.18 0.20 0.22 0.23 0.24 0.23 0.23 0.22 0.23 0.25 0.21 0.21 0.24 0.26 0.26 0.27 0.28 0.28 0.29 0.33 0.46 0.61
0.47 0.39 0.28 0.26 0.25 0.26 0.28 0.29 0.27 0.25 0.25 0.22 0.21 0.21 0.21 0.23 0.22 0.18 0.15 0.16 0.17 0.19 0.20 0.22 0.23 0.24 0.23 0.23 0.22 0.25 0.23 0.20 0.23 0.23 0.25 0.25 0.27 0.27 0.27 0.28 0.28 0.29 0.36
0.55 0.45 0.32 0.26 0.26 0.25 0.27 0.29 0.28 0.27 0.25 0.24 0.24 0.24 0.22 0.21 0.21 0.21 0.18 0.18 0.17 0.17 0.20 0.20 0.22 0.22 0.23 0.23 0.23 0.24 0.22 0.21 0.21 0.23 0.25 0.25 0.26 0.27 0.26 0.26 0.26 0.27 0.27
0.54 0.49 0.38 0.28 0.26 0.26 0.27 0.30 0.29 0.28 0.26 0.25 0.25 0.24 0.26 0.26 0.27 0.25 0.22 0.20 0.18 0.19 0.18 0.20 0.21 0.22 0.23 0.24 0.24 0.24 0.20 0.21 0.24 0.26 0.25 0.26 0.28 0.26 0.26 0.26 0.25 0.26 0.26
0.58 0.53 0.37 0.29 0.27 0.26 0.26 0.29 0.29 0.28 0.27 0.26 0.26 0.27 0.27 0.28 0.29 0.28 0.24 0.21 0.18 0.18 0.19 0.19 0.22 0.21 0.24 0.24 0.24 0.24 0.20 0.21 0.25 0.26 0.27 0.28 0.27 0.27 0.27 0.26 0.26 0.26 0.26
0.59 0.48 0.34 0.29 0.28 0.27 0.26 0.27 0.27 0.27 0.27 0.27 0.28 0.28 0.28 0.30 0.30 0.29 0.27 0.25 0.21 0.17 0.17 0.19 0.18 0.22 0.23 0.23 0.23 0.22 0.19 0.23 0.26 0.27 0.28 0.27 0.28 0.28 0.27 0.25 0.25 0.25 0.24
0.57 0.45 0.34 0.30 0.29 0.28 0.26 0.26 0.27 0.27 0.27 0.27 0.29 0.29 0.30 0.31 0.31 0.29 0.27 0.25 0.24 0.21 0.17 0.20 0.18 0.20 0.21 0.22 0.22 0.20 0.21 0.25 0.25 0.28 0.27 0.25 0.27 0.26 0.26 0.26 0.25 0.25 0.23
0.57 0.45 0.35 0.31 0.30 0.28 0.27 0.26 0.26 0.26 0.26 0.27 0.29 0.30 0.30 0.31 0.29 0.27 0.26 0.25 0.23 0.22 0.18 0.18 0.20 0.20 0.20 0.20 0.20 0.20 0.22 0.24 0.25 0.27 0.24 0.25 0.25 0.25 0.25 0.26 0.25 0.25 0.25
0.55 0.44 0.37 0.33 0.32 0.30 0.28 0.26 0.24 0.26 0.26 0.26 0.27 0.28 0.28 0.30 0.27 0.27 0.26 0.24 0.23 0.22 0.20 0.17 0.19 0.20 0.20 0.20 0.20 0.20 0.21 0.24 0.26 0.24 0.23 0.22 0.23 0.24 0.25 0.25 0.25 0.25 0.24
0.55 0.45 0.39 0.36 0.33 0.31 0.28 0.26 0.26 0.26 0.26 0.24 0.25 0.25 0.26 0.26 0.26 0.26 0.26 0.24 0.23 0.22 0.21 0.20 0.19 0.21 0.20 0.19 0.18 0.20 0.21 0.24 0.25 0.22 0.21 0.22 0.22 0.24 0.23 0.22 0.23 0.23 0.23
0.56 0.46 0.42 0.39 0.35 0.31 0.29 0.27 0.27 0.27 0.27 0.26 0.24 0.24 0.25 0.26 0.25 0.26 0.25 0.24 0.23 0.22 0.22 0.21 0.20 0.19 0.18 0.18 0.19 0.18 0.19 0.21 0.19 0.19 0.19 0.21 0.22 0.22 0.20 0.20 0.20 0.22 0.22
0.54 0.46 0.44 0.41 0.36 0.32 0.30 0.29 0.28 0.30 0.28 0.27 0.24 0.22 0.26 0.27 0.28 0.27 0.25 0.24 0.24 0.23 0.22 0.21 0.19 0.18 0.17 0.17 0.16 0.19 0.18 0.19 0.18 0.17 0.17 0.19 0.20 0.22 0.19 0.18 0.19 0.20 0.21
0.52 0.47 0.46 0.40 0.37 0.33 0.32 0.32 0.31 0.29 0.29 0.27 0.23 0.23 0.24 0.27 0.27 0.26 0.26 0.25 0.25 0.23 0.22 0.20 0.17 0.16 0.17 0.18 0.19 0.18 0.18 0.16 0.13 0.17 0.19 0.19 0.22 0.20 0.19 0.19 0.18 0.20 0.21
0.50 0.49 0.45 0.42 0.39 0.36 0.35 0.35 0.33 0.31 0.30 0.27 0.24 0.22 0.23 0.26 0.26 0.25 0.24 0.24 0.24 0.25 0.24 0.19 0.18 0.18 0.18 0.18 0.19 0.17 0.17 0.17 0.16 0.19 0.20 0.20 0.22 0.19 0.20 0.20 0.18 0.20 0.23
0.52 0.50 0.46 0.45 0.43 0.40 0.38 0.38 0.36 0.34 0.31 0.29 0.25 0.23 0.23 0.24 0.25 0.24 0.23 0.24 0.24 0.23 0.22 0.22 0.22 0.21 0.20 0.21 0.21 0.21 0.20 0.20 0.21 0.21 0.23 0.16 0.18 0.17 0.20 0.19 0.19 0.21 0.24
0.54 0.50 0.48 0.46 0.45 0.43 0.41 0.40 0.38 0.34 0.31 0.29 0.26 0.24 0.24 0.24 0.24 0.24 0.25 0.23 0.23 0.22 0.24 0.24 0.23 0.22 0.21 0.19 0.19 0.20 0.17 0.16 0.15 0.17 0.17 0.16 0.17 0.17 0.20 0.17 0.19 0.22 0.21
0.55 0.53 0.50 0.50 0.49 0.46 0.44 0.42 0.39 0.35 0.31 0.29 0.27 0.25 0.25 0.23 0.23 0.24 0.24 0.23 0.21 0.22 0.23 0.22 0.21 0.21 0.20 0.20 0.19 0.18 0.16 0.13 0.13 0.13 0.16 0.16 0.17 0.17 0.15 0.16 0.21 0.21 0.20
Wind_Speed
8 10 11 12 13 13 14 14 14 15 15 14 13 13 13 12 11 11 12 12 12 12 12 13 13 13 14 14 14 14 15 15 15 15 15 16 17 23 26 23 24 25 25
9 10 11 12 13 14 14 15 15 15 15 14 13 13 13 11 11 12 12 12 12 12 12 13 13 13 14 14 14 14 14 15 16 16 16 16 16 17 26 30 27 25 25
10 10 11 13 14 15 15 15 15 16 15 14 14 14 12 10 11 11 12 13 13 13 14 14 14 14 13 13 13 14 14 15 15 16 16 17 16 15 17 24 29 31 26
10 11 12 14 15 15 15 15 16 16 16 15 14 13 11 11 11 12 12 13 14 14 15 15 15 15 14 15 14 14 15 15 15 15 16 16 16 16 15 15 22 27 31
11 12 12 14 15 15 16 16 17 17 17 15 12 11 11 11 12 13 13 14 14 15 16 16 16 15 15 15 15 15 16 16 16 16 15 16 16 17 17 17 15 20 23
12 13 13 14 15 15 16 17 17 17 16 13 12 11 12 12 13 14 15 15 16 17 17 18 17 15 15 15 15 16 16 16 16 16 16 16 16 17 19 18 20 19 17
12 13 13 14 15 16 17 17 17 17 16 14 13 13 13 14 14 15 16 17 18 19 20 18 17 16 16 16 16 16 17 16 16 16 16 17 17 17 18 19 20 19 19
13 13 13 14 15 16 17 18 18 16 16 16 15 16 16 17 17 17 18 18 19 19 19 18 18 18 17 17 17 18 17 17 17 17 17 17 18 18 18 19 20 20 19
12 13 14 15 16 17 18 19 19 18 17 16 16 16 17 17 19 19 19 19 20 19 19 19 18 18 19 19 19 19 19 18 18 18 18 18 18 19 19 19 20 21 21
13 14 15 16 17 18 19 20 20 19 18 18 17 17 16 17 17 19 19 20 20 20 20 19 19 19 20 20 21 21 20 21 20 20 19 19 19 19 20 20 21 21 22
14 15 16 17 18 19 20 20 20 20 20 19 19 19 18 18 19 18 20 21 21 21 21 20 20 20 20 21 21 21 22 22 22 22 22 21 21 21 22 22 22 23 23
15 16 17 18 19 20 20 21 21 21 21 20 21 20 20 20 20 20 21 21 21 22 21 22 21 21 22 22 22 23 23 24 24 24 24 23 23 23 23 24 24 25 25
16 18 19 19 20 21 21 22 21 22 22 22 22 22 21 21 21 21 22 22 22 22 22 22 22 22 23 23 24 24 25 25 25 25 25 25 25 25 26 26 27 27 28
18 19 20 21 22 22 23 23 23 23 23 23 23 23 22 22 22 22 23 23 23 22 22 23 23 23 24 25 26 26 27 27 26 26 26 27 27 28 28 29 30 30 31
19 20 21 22 23 23 24 24 24 24 24 25 24 24 23 23 23 23 24 24 24 23 23 23 24 25 26 27 28 28 28 27 27 27 27 29 29 29 31 31 32 33 34
20 21 22 23 24 24 25 25 25 25 25 26 25 24 24 23 23 24 25 25 24 24 24 25 25 26 28 28 29 29 28 28 28 28 29 30 31 32 33 33 34 35 36
21 23 24 24 25 25 26 26 26 26 26 26 26 25 24 23 25 25 25 25 26 26 25 26 26 27 28 29 30 29 28 28 29 30 32 33 34 35 36 37 37 38 39
23 24 25 26 26 26 27 27 27 27 26 26 27 25 25 25 26 26 26 26 26 26 26 27 28 29 30 29 29 29 29 29 30 32 34 35 35 37 38 40 41 42 43
24 25 26 27 27 27 27 27 27 27 27 28 27 26 26 26 27 27 26 27 26 27 28 29 29 30 30 30 29 30 30 31 32 35 36 37 38 39 40 42 44 45 45
26 27 28 28 28 28 28 28 28 27 28 28 28 27 27 27 27 26 26 26 27 29 30 30 30 30 30 30 30 31 32 33 35 36 38 39 39 41 42 43 44 45 46
28 29 29 29 29 29 28 28 28 28 28 28 28 28 27 27 25 26 26 27 28 30 30 30 30 31 31 32 33 33 35 35 37 38 38 39 41 42 43 44 45 46 48
29 30 30 29 29 29 28 28 28 28 28 28 28 27 27 26 26 26 27 28 30 30 30 30 31 32 32 33 34 35 37 38 38 37 39 41 41 42 43 44 45 47 48
30 31 30 30 30 29 29 28 28 28 28 28 28 27 27 26 27 27 29 30 30 30 31 32 32 33 34 36 36 37 38 39 40 41 41 42 41 43 44 44 45 46 47
31 31 31 31 30 30 29 29 28 28 28 28 28 27 27 27 28 28 29 30 30 31 32 32 33 34 35 37 38 39 40 41 41 41 40 44 44 44 44 44 45 45 44
32 32 32 31 30 30 30 29 29 29 28 28 28 27 28 28 29 29 30 30 31 32 32 33 34 35 36 37 38 39 39 41 41 41 42 44 43 45 44 44 43 42 45
33 33 32 31 31 31 30 29 29 29 28 28 28 28 29 29 29 30 31 31 32 33 33 33 35 36 37 38 38 39 41 42 43 43 40 44 44 45 44 43 41 44 44
Wind_Direction
345 342 341 341 340 338 337 336 332 329 326 326 321 315 313 308 310 312 316 317 314 310 310 311 306 301 296 293 290 285 281 277 275 274 267 267 264 247 238 235 233 233 233
345 343 343 344 343 341 340 339 336 332 328 325 324 320 317 309 310 310 313 317 316 310 314 313 311 306 301 293 290 290 287 281 275 271 269 267 268 258 241 239 235 234 235
347 346 345 344 343 342 341 340 338 335 330 323 322 319 319 314 313 314 311 312 311 311 311 311 308 306 304 302 297 294 291 286 280 274 270 268 265 260 250 242 236 236 234
352 348 346 345 344 343 342 341 337 334 330 323 316 316 315 314 314 315 314 313 310 308 309 308 307 302 297 299 299 299 293 288 284 277 272 267 262 258 255 244 238 230 241
350 346 343 343 343 343 342 339 337 334 331 329 325 319 317 316 315 313 313 313 312 309 307 306 304 300 298 296 296 298 296 291 286 279 274 269 263 256 254 250 246 240 248
344 342 342 342 343 342 341 339 338 337 333 330 329 325 319 317 315 315 313 311 310 309 307 304 301 297 297 297 297 296 296 294 288 281 275 270 267 261 254 254 249 250 256
341 341 341 341 342 341 340 340 338 337 336 321 316 317 319 317 315 313 313 312 310 308 306 302 297 294 293 295 296 295 294 292 290 285 278 273 269 265 261 256 251 251 253
342 341 341 340 340 340 340 339 338 335 333 328 311 309 308 304 311 311 312 311 310 308 307 303 297 294 291 293 293 294 293 290 288 285 281 275 271 267 263 260 255 251 251
342 342 339 339 340 340 338 338 336 334 330 328 325 312 310 304 305 304 309 310 309 308 306 303 300 295 293 290 290 291 290 290 287 284 281 279 274 268 265 262 260 254 250
340 339 337 336 335 335 334 333 333 330 329 325 320 318 315 310 307 307 306 310 309 306 304 302 301 297 296 294 292 289 287 288 285 283 280 279 275 271 268 265 262 261 254
337 336 334 332 331 331 331 330 330 329 326 324 321 314 311 309 309 306 305 308 308 306 303 300 300 298 297 296 294 291 289 286 283 282 280 278 275 272 270 267 265 263 261
330 332 330 328 327 327 326 326 325 326 325 323 320 317 313 308 307 308 308 308 306 305 301 300 299 298 297 296 293 293 291 288 283 281 279 277 275 273 271 269 267 264 262
322 325 326 325 324 324 323 323 322 322 322 320 318 316 313 309 307 307 308 308 306 304 301 298 299 297 296 295 294 293 291 290 285 281 279 277 275 274 272 270 268 266 264
317 320 321 322 321 321 321 320 319 320 319 318 317 315 312 309 308 308 309 308 307 305 302 300 298 299 297 295 295 293 291 288 284 281 279 278 276 275 273 271 270 268 266
315 317 318 319 319 318 319 318 317 317 317 317 315 313 310 308 308 308 309 308 306 305 303 300 301 299 298 296 296 294 290 286 284 282 280 279 278 276 274 273 272 270 268
311 315 316 317 316 316 316 316 315 315 314 315 314 312 309 307 307 308 309 308 307 305 302 301 300 299 298 297 296 294 289 286 284 282 282 281 279 278 276 275 273 271 269
307 311 313 314 314 313 314 314 314 313 313 314 313 311 308 306 307 308 308 307 307 305 303 303 302 302 300 299 297 294 290 287 286 283 284 283 280 278 277 276 274 273 271
304 309 311 312 312 311 312 312 312 312 312 312 313 310 307 307 307 307 306 306 306 305 304 304 303 303 301 300 298 295 293 289 287 287 287 285 283 281 279 277 275 274 273
301 306 309 310 310 310 310 310 310 310 310 311 311 308 307 307 307 306 305 305 306 306 305 305 304 303 302 301 298 296 294 291 290 290 289 286 284 283 282 280 277 275 274
299 304 306 308 308 308 309 309 309 309 309 310 310 308 307 307 307 306 306 306 306 306 307 306 305 304 303 302 300 298 296 294 293 292 291 289 286 285 284 282 280 277 275
295 300 304 306 306 306 307 308 308 308 308 309 310 308 307 308 308 307 306 307 307 307 307 306 305 305 304 304 302 301 299 297 296 295 292 290 289 287 286 284 282 279 277
293 298 301 303 304 305 305 306 307 307 308 309 309 308 307 306 307 307 308 308 308 308 308 307 306 305 305 304 303 302 300 299 298 297 294 292 290 288 288 286 283 282 279
290 294 297 299 301 303 303 304 305 306 307 308 308 307 306 306 306 307 308 309 309 309 309 308 307 306 306 305 305 304 303 301 298 298 296 293 292 290 289 287 286 283 280
287 291 294 297 298 300 301 302 304 305 305 307 307 305 305 305 305 306 308 309 309 309 310 309 308 309 308 307 306 304 304 302 301 299 298 295 294 291 290 289 287 283 281
285 288 291 294 295 298 298 299 302 303 303 305 305 304 305 305 305 306 308 308 309 310 310 309 309 309 309 309 308 306 305 305 303 301 301 297 297 294 292 290 288 283 284
284 286 288 291 294 296 296 297 299 302 301 303 304 304 305 305 305 307 308 308 309 310 310 310 309 309 310 310 309 308 307 305 304 303 302 299 298 298 294 292 287 287 284